TimeEST,TemperatureF,Dew PointF,Humidity,Sea Level PressureIn,VisibilityMPH,Wind Direction,Wind SpeedMPH,Gust SpeedMPH,PrecipitationIn,Events,Conditions,WindDirDegrees,DateUTC
12:46 AM,50.0,37.4,62,30.25,10.0,ENE,9.2,-,N/A,,Overcast,60,2012-11-15 05:46:00
12:53 AM,50.0,37.0,61,30.24,10.0,ENE,11.5,16.1,N/A,,Overcast,60,2012-11-15 05:53:00
1:16 AM,50.0,37.4,62,30.23,10.0,NE,10.4,-,N/A,,Overcast,50,2012-11-15 06:16:00
1:53 AM,48.9,37.0,64,30.23,10.0,ENE,6.9,17.3,N/A,,Overcast,60,2012-11-15 06:53:00
2:53 AM,48.9,37.0,64,30.22,10.0,NE,9.2,-,N/A,,Overcast,50,2012-11-15 07:53:00
3:53 AM,46.9,37.9,71,30.23,9.0,NNE,9.2,-,0.00,Rain,Light Rain,20,2012-11-15 08:53:00
4:36 AM,44.6,39.2,81,30.25,2.5,North,10.4,21.9,0.08,Rain,Heavy Rain,10,2012-11-15 09:36:00
4:46 AM,44.6,41.0,87,30.25,5.0,NNE,13.8,18.4,0.09,Rain,Light Rain,20,2012-11-15 09:46:00
4:53 AM,44.1,41.0,89,30.25,4.0,North,13.8,20.7,0.10,Rain,Rain,10,2012-11-15 09:53:00
5:00 AM,44.6,41.0,87,30.24,5.0,NNE,15.0,21.9,0.01,Rain,Rain,20,2012-11-15 10:00:00
5:31 AM,44.6,41.0,87,30.25,2.0,North,8.1,20.7,0.15,Rain,Heavy Rain,10,2012-11-15 10:31:00
5:40 AM,44.6,41.0,87,30.27,5.0,North,10.4,17.3,0.19,Rain,Light Rain,350,2012-11-15 10:40:00
5:51 AM,44.6,39.2,81,30.25,2.0,ENE,11.5,16.1,0.33,Rain,Heavy Rain,60,2012-11-15 10:51:00
5:53 AM,44.1,39.9,85,30.25,2.0,NE,12.7,16.1,0.35,Rain,Heavy Rain,50,2012-11-15 10:53:00
6:08 AM,42.8,41.0,93,30.24,3.0,NNE,12.7,-,0.10,Rain,Heavy Rain,20,2012-11-15 11:08:00
6:15 AM,42.8,41.0,93,30.25,2.0,North,5.8,16.1,0.18,Rain,Heavy Rain,360,2012-11-15 11:15:00
6:25 AM,42.8,41.0,93,30.27,4.0,Variable,3.5,-,0.21,Rain,Rain,0,2012-11-15 11:25:00
6:53 AM,43.0,41.0,93,30.28,4.0,Calm,Calm,-,0.34,Rain,Rain,0,2012-11-15 11:53:00
7:30 AM,42.8,39.2,87,30.26,4.0,ENE,9.2,19.6,0.11,Rain,Rain,60,2012-11-15 12:30:00
7:53 AM,43.0,39.9,89,30.25,5.0,ENE,15.0,21.9,0.18,Rain,Heavy Rain,70,2012-11-15 12:53:00
8:21 AM,42.8,39.2,87,30.24,5.0,ENE,10.4,18.4,0.07,Rain,Light Rain,60,2012-11-15 13:21:00
8:29 AM,42.8,39.2,87,30.25,8.0,ENE,10.4,-,0.08,Rain,Light Rain,60,2012-11-15 13:29:00
8:53 AM,44.1,41.0,89,30.27,10.0,Calm,Calm,-,0.08,,Overcast,0,2012-11-15 13:53:00
9:53 AM,45.0,42.1,90,30.27,9.0,Variable,4.6,-,N/A,,Overcast,0,2012-11-15 14:53:00
10:53 AM,45.0,41.0,86,30.28,7.0,North,9.2,-,N/A,,Overcast,350,2012-11-15 15:53:00
11:53 AM,45.0,41.0,86,30.27,7.0,NNW,6.9,-,N/A,,Overcast,340,2012-11-15 16:53:00
12:39 PM,44.6,41.0,87,30.25,8.0,North,9.2,-,N/A,,Overcast,350,2012-11-15 17:39:00
12:53 PM,45.0,41.0,86,30.25,7.0,North,10.4,-,N/A,,Overcast,360,2012-11-15 17:53:00
1:53 PM,45.0,42.1,90,30.24,5.0,North,10.4,-,N/A,,Overcast,360,2012-11-15 18:53:00
2:53 PM,46.0,42.1,86,30.23,9.0,NNE,10.4,-,N/A,,Overcast,20,2012-11-15 19:53:00
3:53 PM,46.9,43.0,86,30.24,6.0,North,9.2,-,N/A,,Overcast,10,2012-11-15 20:53:00
4:53 PM,46.9,43.0,86,30.24,5.0,NNE,8.1,-,N/A,,Overcast,30,2012-11-15 21:53:00
5:53 PM,46.9,44.1,90,30.24,6.0,NNE,5.8,-,N/A,,Overcast,20,2012-11-15 22:53:00
6:46 PM,46.4,42.8,87,30.25,9.0,North,3.5,-,N/A,,Overcast,350,2012-11-15 23:46:00
6:53 PM,46.9,44.1,90,30.25,9.0,North,4.6,-,N/A,,Overcast,10,2012-11-15 23:53:00
7:14 PM,48.2,42.8,82,30.25,10.0,Calm,Calm,-,N/A,,Overcast,0,2012-11-16 00:14:00
7:53 PM,48.0,43.0,83,30.25,10.0,Variable,5.8,-,N/A,,Overcast,0,2012-11-16 00:53:00
8:53 PM,48.0,43.0,83,30.26,10.0,NNE,9.2,-,N/A,,Overcast,20,2012-11-16 01:53:00
9:06 PM,48.2,42.8,82,30.26,10.0,NNE,6.9,-,N/A,,Overcast,30,2012-11-16 02:06:00
9:27 PM,46.4,42.8,87,30.26,10.0,NNE,8.1,-,N/A,,Overcast,30,2012-11-16 02:27:00
9:53 PM,46.9,42.1,83,30.26,10.0,NNE,4.6,-,N/A,,Overcast,20,2012-11-16 02:53:00
10:10 PM,46.4,42.8,87,30.25,10.0,NNE,6.9,-,N/A,,Overcast,20,2012-11-16 03:10:00
10:53 PM,46.9,41.0,80,30.25,10.0,North,6.9,-,N/A,,Overcast,10,2012-11-16 03:53:00
11:13 PM,46.4,41.0,81,30.25,10.0,North,6.9,-,N/A,,Overcast,10,2012-11-16 04:13:00
11:53 PM,46.0,41.0,83,30.26,10.0,North,8.1,-,N/A,,Overcast,10,2012-11-16 04:53:00